Weather History for Winona, MN

Change the Weather History Date:

Saturday, November 10, 2012

  Actual Average Record
Temperature  
Mean Temperature 56 °F -  
Max Temperature 68 °F 48 °F 68 °F (2010)
Min Temperature 44 °F 32 °F 20 °F (1991)
Degree Days  
Heating Degree Days 9    
Growing Degree Days 6 (Base 50)    
Moisture  
Dew Point 47 °F    
Average Humidity 74    
Maximum Humidity 93    
Minimum Humidity 52    
Precipitation  
Precipitation 0.00 in - - ()
Sea Level Pressure  
Sea Level Pressure 29.72 in    
Wind  
Wind Speed 10 mph (SE)    
Max Wind Speed 15 mph    
Max Gust Speed 22 mph    
Visibility 6 miles    
Events Rain    
Averages and records for this station are not official NWS values.
T = Trace of Precipitation, MM = Missing Value Source: NWS Daily Summary

Daily Weather History Graph

Daily Weather History Graph

Search for Another Location

Airport:

Trip Planner

Search our weather history database for the weather conditions in past years. The results will help you decide how hot, cold, wet, or windy it might be!

Date:

Astronomy

Nov. 10, 2012 Rise Set
Actual Time 6:56 AM CST 4:44 PM CST
Civil Twilight 6:25 AM CST 5:15 PM CST
Nautical Twilight 5:50 AM CST 5:50 PM CST
Astronomical Twilight 5:16 AM CST 6:24 PM CST
Moon 2:54 AM CST (11/10) 2:38 PM CST (11/10)
Length of Visible Light 10h 50m
Length of Day
9h 48m
Waning Crescent, 14% of the Moon is Illuminated
Nov 10
Waning Crescent
Nov 13
New
Nov 20
First Quarter
Nov 28
Full
Dec 6
Last Quarter

Hourly Weather History & Observations

Time (CST) Temp. Windchill Dew Point Humidity Pressure Visibility Wind Dir Wind Speed Gust Speed Precip Events Conditions
12:12 AM 44.6 °F 38.8 °F 42.8 °F 93% 29.96 in 2.5 mi ESE 11.5 mph - N/A   Overcast
12:33 AM 44.6 °F 38.8 °F 42.8 °F 93% 29.94 in 2.5 mi ESE 11.5 mph - N/A   Overcast
12:52 AM 44.6 °F 38.1 °F 42.8 °F 93% 29.93 in 2.5 mi SE 13.8 mph 18.4 mph N/A   Overcast
1:12 AM 44.6 °F 38.1 °F 42.8 °F 93% 29.92 in 3.0 mi ESE 13.8 mph 18.4 mph N/A   Overcast
1:33 AM 44.6 °F 38.1 °F 41.0 °F 87% 29.92 in 3.0 mi ESE 13.8 mph 20.7 mph N/A   Overcast
1:52 AM 44.6 °F 38.8 °F 41.0 °F 87% 29.92 in 3.0 mi ESE 11.5 mph - N/A   Overcast
2:12 AM 44.6 °F 39.2 °F 41.0 °F 87% 29.91 in 3.0 mi ESE 10.4 mph 17.3 mph N/A   Light Drizzle
2:33 AM 44.6 °F 39.2 °F 41.0 °F 87% 29.91 in 3.0 mi ESE 10.4 mph - N/A   Overcast
2:52 AM 44.6 °F 39.2 °F 41.0 °F 87% 29.91 in 3.0 mi SE 10.4 mph 17.3 mph N/A   Overcast
3:12 AM 44.6 °F 38.8 °F 41.0 °F 87% 29.89 in 3.0 mi ESE 11.5 mph - N/A   Overcast
3:33 AM 44.6 °F 39.7 °F 41.0 °F 87% 29.89 in 3.0 mi SE 9.2 mph - N/A   Overcast
3:52 AM 44.6 °F 38.4 °F 42.8 °F 93% 29.86 in 3.0 mi SE 12.7 mph - N/A   Overcast
4:12 AM 44.6 °F 39.2 °F 42.8 °F 93% 29.86 in 3.0 mi ESE 10.4 mph - N/A   Overcast
4:33 AM 44.6 °F 39.7 °F 42.8 °F 93% 29.86 in 3.0 mi SE 9.2 mph - N/A   Overcast
4:52 AM 44.6 °F 39.2 °F 42.8 °F 93% 29.86 in 3.0 mi ESE 10.4 mph - N/A   Light Drizzle
5:12 AM 44.6 °F 39.7 °F 41.0 °F 87% 29.85 in 3.0 mi ESE 9.2 mph - N/A   Overcast
5:32 AM 44.6 °F 37.8 °F 41.0 °F 87% 29.82 in 3.0 mi ESE 15.0 mph - N/A   Overcast
6:12 AM 44.6 °F 39.7 °F 41.0 °F 87% 29.82 in 3.0 mi SE 9.2 mph - N/A   Overcast
6:32 AM 44.6 °F 39.7 °F 42.8 °F 93% 29.82 in 3.0 mi ESE 9.2 mph - N/A   Overcast
6:53 AM 46.4 °F 41.5 °F 42.8 °F 87% 29.82 in 3.0 mi ESE 10.4 mph - N/A   Overcast
7:12 AM 46.4 °F 41.1 °F 42.8 °F 87% 29.81 in 3.0 mi SE 11.5 mph - N/A   Overcast
7:32 AM 46.4 °F 41.9 °F 42.8 °F 87% 29.81 in 3.0 mi SE 9.2 mph - N/A   Overcast
7:53 AM 46.4 °F 41.9 °F 42.8 °F 87% 29.80 in 3.0 mi SE 9.2 mph - N/A   Overcast
8:12 AM 46.4 °F 41.1 °F 42.8 °F 87% 29.79 in 2.5 mi SE 11.5 mph - N/A   Overcast
8:32 AM 46.4 °F 41.1 °F 42.8 °F 87% 29.78 in 2.5 mi SE 11.5 mph - N/A   Overcast
8:53 AM 46.4 °F 41.1 °F 42.8 °F 87% 29.78 in 2.5 mi SE 11.5 mph - N/A   Overcast
9:12 AM 46.4 °F 41.9 °F 42.8 °F 87% 29.77 in 3.0 mi SE 9.2 mph - N/A   Haze
9:32 AM 46.4 °F 41.9 °F 42.8 °F 87% 29.76 in 3.0 mi SE 9.2 mph - N/A   Haze
9:53 AM 48.2 °F - 42.8 °F 82% 29.75 in 3.0 mi SE 9.2 mph - N/A   Haze
10:12 AM 50.0 °F - 44.6 °F 82% 29.74 in 3.0 mi SE 9.2 mph - N/A   Haze
10:32 AM 50.0 °F - 44.6 °F 82% 29.73 in 4.0 mi SE 9.2 mph - N/A   Haze
10:52 AM 51.8 °F - 46.4 °F 82% 29.72 in 4.0 mi SE 8.1 mph - N/A   Haze
11:12 AM 51.8 °F - 46.4 °F 82% 29.71 in 5.0 mi ESE 10.4 mph - N/A   Haze
11:33 AM 53.6 °F - 46.4 °F 77% 29.69 in 5.0 mi SE 9.2 mph - N/A   Haze
11:52 AM 55.4 °F - 48.2 °F 77% 29.68 in 5.0 mi ESE 11.5 mph - N/A   Haze
12:12 PM 57.2 °F - 46.4 °F 67% 29.66 in 7.0 mi SE 10.4 mph - N/A   Scattered Clouds
12:33 PM 59.0 °F - 48.2 °F 67% 29.64 in 10.0 mi SE 11.5 mph - N/A   Clear
12:52 PM 59.0 °F - 48.2 °F 67% 29.65 in 10.0 mi SE 9.2 mph - N/A   Scattered Clouds
1:12 PM 64.4 °F - 51.8 °F 64% 29.64 in 10.0 mi SE 8.1 mph - N/A   Scattered Clouds
1:32 PM 68.0 °F - 51.8 °F 56% 29.63 in 10.0 mi SSE 5.8 mph - N/A   Mostly Cloudy
1:52 PM 68.0 °F - 51.8 °F 56% 29.62 in 10.0 mi South 9.2 mph - N/A   Mostly Cloudy
2:12 PM 68.0 °F - 51.8 °F 56% 29.62 in 10.0 mi SSE 6.9 mph 16.1 mph N/A   Scattered Clouds
2:32 PM 68.0 °F - 51.8 °F 56% 29.62 in 10.0 mi South 9.2 mph 17.3 mph N/A   Scattered Clouds
2:52 PM 68.0 °F - 51.8 °F 56% 29.62 in 10.0 mi South 9.2 mph 19.6 mph N/A   Clear
3:12 PM 68.0 °F - 51.8 °F 56% 29.62 in 10.0 mi SSE 11.5 mph 17.3 mph N/A   Clear
3:32 PM 68.0 °F - 51.8 °F 56% 29.62 in 10.0 mi SSE 9.2 mph 16.1 mph N/A   Clear
3:52 PM 68.0 °F - 51.8 °F 56% 29.62 in 10.0 mi SSE 9.2 mph 16.1 mph N/A   Clear
4:12 PM 68.0 °F - 51.8 °F 56% 29.61 in 10.0 mi SSE 9.2 mph - N/A   Clear
4:32 PM 64.4 °F - 51.8 °F 64% 29.60 in 10.0 mi SE 10.4 mph - N/A   Clear
4:52 PM 64.4 °F - 51.8 °F 64% 29.60 in 10.0 mi SE 10.4 mph - N/A   Clear
5:12 PM 64.4 °F - 51.8 °F 64% 29.60 in 10.0 mi SE 11.5 mph - N/A   Clear
5:32 PM 62.6 °F - 51.8 °F 68% 29.60 in 10.0 mi SE 6.9 mph - N/A   Clear
5:52 PM 64.4 °F - 51.8 °F 64% 29.60 in 10.0 mi SSE 6.9 mph - N/A   Clear
6:12 PM 64.4 °F - 51.8 °F 64% 29.61 in 10.0 mi SSE 8.1 mph - N/A   Clear
6:32 PM 64.4 °F - 51.8 °F 64% 29.62 in 10.0 mi South 4.6 mph - N/A   Clear
6:52 PM 68.0 °F - 53.6 °F 60% 29.62 in 10.0 mi South 9.2 mph 19.6 mph N/A   Clear
7:12 PM 64.4 °F - 51.8 °F 64% 29.62 in 10.0 mi SSE 8.1 mph 17.3 mph N/A   Clear
7:32 PM 64.4 °F - 51.8 °F 64% 29.61 in 10.0 mi SSE 10.4 mph 19.6 mph N/A   Clear
7:52 PM 64.4 °F - 51.8 °F 64% 29.60 in 10.0 mi South 8.1 mph 21.9 mph N/A   Clear
8:12 PM 62.6 °F - 53.6 °F 72% 29.61 in 10.0 mi South 9.2 mph - N/A Rain Light Rain
8:32 PM 64.4 °F - 53.6 °F 68% 29.60 in 10.0 mi South 8.1 mph 16.1 mph N/A   Clear
9:32 PM 64.4 °F - 51.8 °F 64% 29.59 in 10.0 mi SSE 10.4 mph - N/A   Overcast
10:12 PM 68.0 °F - 50.0 °F 52% 29.60 in 10.0 mi South 8.1 mph - N/A   Overcast
10:32 PM 68.0 °F - 50.0 °F 52% 29.59 in 10.0 mi South 10.4 mph 17.3 mph N/A   Mostly Cloudy
10:52 PM 64.4 °F - 48.2 °F 56% 29.59 in 10.0 mi South 10.4 mph 16.1 mph N/A   Mostly Cloudy
11:12 PM 64.4 °F - 46.4 °F 52% 29.60 in 10.0 mi South 6.9 mph - N/A   Mostly Cloudy
11:32 PM 64.4 °F - 48.2 °F 56% 29.61 in 10.0 mi South 6.9 mph 18.4 mph N/A   Overcast
11:52 PM 64.4 °F - 46.4 °F 52% 29.61 in 10.0 mi SSW 5.8 mph 18.4 mph N/A   Overcast